Tracking 31027 objects as of 19-Jul-2025
HD Live streaming from Space Station
objects crossing your sky now

ONEWEB-0177

Track ONEWEB-0177 now!
10-day predictions
ONEWEB-0177 is classified as:


NORAD ID: 48074
Int'l Code: 2021-025AJ
Perigee: 1,215.6 km
Apogee: 1,218.2 km
Inclination: 87.9 °
Period: 109.6 minutes
Semi major axis: 7587 km
RCS: Unknown
Launch date: March 25, 2021
Source: United States (US)
Launch site: VOSTOCHNY COSMODROME (VOSTO)
Your satellite tracking list
SPACEBEENZ-7
Track 1 satellite(s)




NASA's NSSDC Master Catalog

Two Line Element Set (TLE):
1 48074U 21025AJ  25199.51615092  .00000287  00000-0  74977-3 0  9992
2 48074  87.8959  26.5037 0001687  82.1378 277.9942 13.13468863209874
Source of the keplerian elements: AFSPC